Time,TemperatureF,DewpointF,PressureIn,WindDirection,WindDirectionDegrees,WindSpeedMPH,WindSpeedGustMPH,Humidity,HourlyPrecipIn,Conditions,Clouds,dailyrainin,SoftwareType,DateUTC
2013-08-14 00:01:00,75.7,73.6,29.95,SW,225,0.0,0.0,93,0.00,,,0.00,LWC V2.00 B2112,2013-08-14 04:01:00,
2013-08-14 00:02:00,75.7,73.4,29.94,SSW,202,0.0,0.0,93,0.00,,,0.00,LWC V2.00 B2112,2013-08-14 04:02:00,
2013-08-14 00:03:00,75.6,73.4,29.94,SSW,202,0.0,0.0,93,0.00,,,0.00,LWC V2.00 B2112,2013-08-14 04:03:00,
2013-08-14 00:04:00,75.6,73.4,29.94,SSW,202,0.0,0.0,93,0.00,,,0.00,LWC V2.00 B2112,2013-08-14 04:04:00,
2013-08-14 00:09:00,75.6,73.4,29.95,SSW,202,0.0,0.0,93,0.00,,,0.00,LWC V2.00 B2112,2013-08-14 04:09:00,
2013-08-14 00:14:00,75.6,73.4,29.95,SSW,202,0.0,0.0,93,0.00,,,0.00,LWC V2.00 B2112,2013-08-14 04:14:00,
2013-08-14 00:19:00,75.4,73.2,29.95,SSW,202,0.0,0.0,93,0.00,,,0.00,LWC V2.00 B2112,2013-08-14 04:19:00,
2013-08-14 00:24:00,75.4,73.2,29.94,SSW,202,0.0,0.0,93,0.00,,,0.00,LWC V2.00 B2112,2013-08-14 04:24:00,
2013-08-14 00:29:00,75.4,73.2,29.94,SW,225,0.0,0.0,93,0.00,,,0.00,LWC V2.00 B2112,2013-08-14 04:29:00,
2013-08-14 00:34:00,75.4,73.2,29.94,SW,225,0.0,0.0,93,0.00,,,0.00,LWC V2.00 B2112,2013-08-14 04:34:00,
2013-08-14 00:39:00,75.2,73.1,29.94,SW,225,0.0,0.0,93,0.00,,,0.00,LWC V2.00 B2112,2013-08-14 04:39:00,
2013-08-14 00:44:00,75.0,72.9,29.94,SW,225,0.0,0.0,93,0.00,,,0.00,LWC V2.00 B2112,2013-08-14 04:44:00,
2013-08-14 00:49:00,75.0,72.9,29.94,SW,225,0.0,0.0,93,0.00,,,0.00,LWC V2.00 B2112,2013-08-14 04:49:00,
2013-08-14 00:54:00,75.0,72.9,29.95,SW,225,0.0,0.0,93,0.00,,,0.00,LWC V2.00 B2112,2013-08-14 04:54:00,
2013-08-14 00:59:00,75.0,72.9,29.94,SW,225,0.0,0.0,93,0.00,,,0.00,LWC V2.00 B2112,2013-08-14 04:59:00,
2013-08-14 01:04:00,75.0,72.9,29.94,SW,225,0.0,0.0,93,0.00,,,0.00,LWC V2.00 B2112,2013-08-14 05:04:00,
2013-08-14 01:09:00,74.8,72.7,29.94,SW,225,0.0,0.0,93,0.00,,,0.00,LWC V2.00 B2112,2013-08-14 05:09:00,
2013-08-14 01:14:00,74.8,72.7,29.94,SW,225,0.0,0.0,93,0.00,,,0.00,LWC V2.00 B2112,2013-08-14 05:14:00,
2013-08-14 01:19:00,74.8,72.7,29.94,SW,225,0.0,0.0,93,0.00,,,0.00,LWC V2.00 B2112,2013-08-14 05:19:00,
2013-08-14 01:24:00,74.8,72.7,29.94,SW,225,0.0,0.0,93,0.00,,,0.00,LWC V2.00 B2112,2013-08-14 05:24:00,
2013-08-14 01:29:00,74.7,72.5,29.95,SW,225,0.0,0.0,93,0.00,,,0.00,LWC V2.00 B2112,2013-08-14 05:29:00,
2013-08-14 01:34:00,74.7,72.5,29.94,SW,225,0.0,0.0,93,0.00,,,0.00,LWC V2.00 B2112,2013-08-14 05:34:00,
2013-08-14 01:39:00,74.5,72.6,29.94,SW,225,0.0,0.0,94,0.00,,,0.00,LWC V2.00 B2112,2013-08-14 05:39:00,
2013-08-14 01:44:00,74.5,72.6,29.94,SW,225,0.0,0.0,94,0.00,,,0.00,LWC V2.00 B2112,2013-08-14 05:44:00,
2013-08-14 01:49:00,74.5,72.6,29.94,SW,225,0.0,0.0,94,0.00,,,0.00,LWC V2.00 B2112,2013-08-14 05:49:00,
2013-08-14 01:54:00,74.5,72.6,29.94,SW,225,0.0,0.0,94,0.00,,,0.00,LWC V2.00 B2112,2013-08-14 05:54:00,
2013-08-14 01:59:00,74.5,72.6,29.94,SW,225,0.0,0.0,94,0.00,,,0.00,LWC V2.00 B2112,2013-08-14 05:59:00,
2013-08-14 02:04:00,74.5,72.6,29.94,SW,225,0.0,0.0,94,0.00,,,0.00,LWC V2.00 B2112,2013-08-14 06:04:00,
2013-08-14 02:09:00,74.5,72.6,29.94,SW,225,0.0,0.0,94,0.00,,,0.00,LWC V2.00 B2112,2013-08-14 06:09:00,
2013-08-14 02:14:00,74.5,72.6,29.94,SW,225,0.0,0.0,94,0.00,,,0.00,LWC V2.00 B2112,2013-08-14 06:14:00,
2013-08-14 02:19:00,74.5,72.6,29.94,SW,225,0.0,0.0,94,0.00,,,0.00,LWC V2.00 B2112,2013-08-14 06:19:00,
2013-08-14 02:24:00,74.3,72.5,29.93,SW,225,0.0,0.0,94,0.00,,,0.00,LWC V2.00 B2112,2013-08-14 06:24:00,
2013-08-14 02:29:00,74.3,72.5,29.93,SW,225,0.0,0.0,94,0.00,,,0.00,LWC V2.00 B2112,2013-08-14 06:29:00,
2013-08-14 02:34:00,74.3,72.5,29.93,SW,225,0.0,0.0,94,0.00,,,0.00,LWC V2.00 B2112,2013-08-14 06:34:00,
2013-08-14 02:39:00,74.1,72.3,29.93,SW,225,0.0,0.0,94,0.00,,,0.00,LWC V2.00 B2112,2013-08-14 06:39:00,
2013-08-14 02:44:00,74.1,72.3,29.93,SW,225,0.0,0.0,94,0.00,,,0.00,LWC V2.00 B2112,2013-08-14 06:44:00,
2013-08-14 02:49:00,74.1,72.3,29.93,SW,225,0.0,0.0,94,0.00,,,0.00,LWC V2.00 B2112,2013-08-14 06:49:00,
2013-08-14 02:54:00,74.1,72.3,29.93,SW,225,0.0,0.0,94,0.00,,,0.00,LWC V2.00 B2112,2013-08-14 06:54:00,
2013-08-14 02:57:00,74.1,72.3,29.93,SW,225,0.0,0.0,94,0.00,,,0.00,LWC V2.00 B2112,2013-08-14 06:57:00,
2013-08-14 03:02:00,74.1,72.3,29.93,SW,225,0.0,0.0,94,0.00,,,0.00,LWC V2.00 B2112,2013-08-14 07:02:00,
2013-08-14 03:07:00,74.1,72.3,29.94,SW,225,0.0,0.0,94,0.00,,,0.00,LWC V2.00 B2112,2013-08-14 07:07:00,
2013-08-14 03:12:00,74.1,72.3,29.94,SSE,157,0.0,0.0,94,0.00,,,0.00,LWC V2.00 B2112,2013-08-14 07:12:00,
2013-08-14 03:17:00,74.1,72.3,29.94,SSE,157,0.0,0.0,94,0.00,,,0.00,LWC V2.00 B2112,2013-08-14 07:17:00,
2013-08-14 03:22:00,74.1,72.3,29.93,SSE,157,0.0,0.0,94,0.00,,,0.00,LWC V2.00 B2112,2013-08-14 07:22:00,
2013-08-14 03:27:00,74.1,72.3,29.94,SSE,157,0.0,0.0,94,0.00,,,0.00,LWC V2.00 B2112,2013-08-14 07:27:00,
2013-08-14 03:32:00,74.1,72.3,29.94,SSE,157,0.0,0.0,94,0.00,,,0.00,LWC V2.00 B2112,2013-08-14 07:32:00,
2013-08-14 03:37:00,74.1,72.3,29.93,SSE,157,0.0,0.0,94,0.00,,,0.00,LWC V2.00 B2112,2013-08-14 07:37:00,
2013-08-14 03:42:00,74.1,72.3,29.93,SSE,157,0.0,0.0,94,0.00,,,0.00,LWC V2.00 B2112,2013-08-14 07:42:00,
2013-08-14 03:47:00,74.1,72.3,29.93,SSE,157,0.0,0.0,94,0.00,,,0.00,LWC V2.00 B2112,2013-08-14 07:47:00,
2013-08-14 03:52:00,74.1,72.0,29.94,SSE,157,0.0,0.0,93,0.00,,,0.00,LWC V2.00 B2112,2013-08-14 07:52:00,
2013-08-14 03:57:00,74.1,72.0,29.94,SSE,157,0.0,0.0,93,0.00,,,0.00,LWC V2.00 B2112,2013-08-14 07:57:00,
2013-08-14 04:02:00,74.1,72.0,29.94,SSE,157,0.0,0.0,93,0.00,,,0.00,LWC V2.00 B2112,2013-08-14 08:02:00,
2013-08-14 04:07:00,74.1,72.0,29.94,SSE,157,0.0,0.0,93,0.00,,,0.00,LWC V2.00 B2112,2013-08-14 08:07:00,
2013-08-14 04:12:00,74.1,72.0,29.94,SSE,157,0.0,0.0,93,0.00,,,0.00,LWC V2.00 B2112,2013-08-14 08:12:00,
2013-08-14 04:17:00,74.1,72.0,29.94,WNW,292,0.0,0.0,93,0.00,,,0.00,LWC V2.00 B2112,2013-08-14 08:17:00,
2013-08-14 04:22:00,73.9,71.5,29.94,WNW,292,0.0,0.0,92,0.00,,,0.00,LWC V2.00 B2112,2013-08-14 08:22:00,
2013-08-14 04:27:00,73.9,71.5,29.94,WNW,292,0.0,0.0,92,0.00,,,0.00,LWC V2.00 B2112,2013-08-14 08:27:00,
2013-08-14 04:32:00,73.9,71.5,29.94,NNW,337,1.1,1.1,92,0.00,,,0.00,LWC V2.00 B2112,2013-08-14 08:32:00,
2013-08-14 04:37:00,73.8,71.3,29.94,North,0,3.6,3.6,92,0.00,,,0.00,LWC V2.00 B2112,2013-08-14 08:37:00,
2013-08-14 04:42:00,73.8,71.3,29.94,North,0,1.6,2.2,92,0.00,,,0.00,LWC V2.00 B2112,2013-08-14 08:42:00,
2013-08-14 04:47:00,73.8,71.0,29.95,North,0,0.0,0.0,91,0.00,,,0.00,LWC V2.00 B2112,2013-08-14 08:47:00,
2013-08-14 04:52:00,73.6,70.8,29.96,North,0,1.8,3.4,91,0.00,,,0.00,LWC V2.00 B2112,2013-08-14 08:52:00,
2013-08-14 04:57:00,73.6,70.8,29.96,North,0,1.6,1.6,91,0.00,,,0.00,LWC V2.00 B2112,2013-08-14 08:57:00,
2013-08-14 05:02:00,73.6,70.8,29.96,NNW,337,0.7,0.7,91,0.00,,,0.00,LWC V2.00 B2112,2013-08-14 09:02:00,
2013-08-14 05:07:00,73.4,70.3,29.96,North,0,2.5,2.5,90,0.00,,,0.00,LWC V2.00 B2112,2013-08-14 09:07:00,
2013-08-14 05:12:00,73.2,70.2,29.96,NNW,337,3.1,3.1,90,0.00,,,0.00,LWC V2.00 B2112,2013-08-14 09:12:00,
2013-08-14 05:17:00,73.2,70.2,29.96,NNW,337,2.9,2.9,90,0.00,,,0.00,LWC V2.00 B2112,2013-08-14 09:17:00,
2013-08-14 05:22:00,73.2,70.5,29.97,North,0,2.2,2.7,91,0.00,,,0.00,LWC V2.00 B2112,2013-08-14 09:22:00,
2013-08-14 05:27:00,73.0,70.3,29.97,North,0,1.3,1.3,91,0.00,,,0.00,LWC V2.00 B2112,2013-08-14 09:27:00,
2013-08-14 05:32:00,73.0,70.0,29.97,North,0,2.0,2.0,90,0.00,,,0.00,LWC V2.00 B2112,2013-08-14 09:32:00,
2013-08-14 05:37:00,72.9,69.8,29.97,North,0,1.6,2.2,90,0.00,,,0.00,LWC V2.00 B2112,2013-08-14 09:37:00,
2013-08-14 05:42:00,72.7,69.6,29.97,North,0,2.5,2.7,90,0.00,,,0.00,LWC V2.00 B2112,2013-08-14 09:42:00,
2013-08-14 05:47:00,72.7,69.6,29.97,North,0,2.5,2.5,90,0.00,,,0.00,LWC V2.00 B2112,2013-08-14 09:47:00,
2013-08-14 05:52:00,72.5,69.4,29.97,North,0,3.1,3.1,90,0.00,,,0.00,LWC V2.00 B2112,2013-08-14 09:52:00,
2013-08-14 05:57:00,72.5,69.4,29.97,North,0,2.0,2.0,90,0.00,,,0.00,LWC V2.00 B2112,2013-08-14 09:57:00,
2013-08-14 06:02:00,72.3,69.3,29.97,North,0,3.1,3.1,90,0.00,,,0.00,LWC V2.00 B2112,2013-08-14 10:02:00,
2013-08-14 06:07:00,72.3,69.3,29.98,North,0,1.6,1.6,90,0.00,,,0.00,LWC V2.00 B2112,2013-08-14 10:07:00,
2013-08-14 06:12:00,72.3,69.3,29.98,North,0,2.5,2.5,90,0.00,,,0.00,LWC V2.00 B2112,2013-08-14 10:12:00,
2013-08-14 06:17:00,72.1,69.4,29.98,North,0,2.7,2.7,91,0.00,,,0.00,LWC V2.00 B2112,2013-08-14 10:17:00,
2013-08-14 06:22:00,72.1,69.4,29.99,North,0,2.9,2.9,91,0.00,,,0.00,LWC V2.00 B2112,2013-08-14 10:22:00,
2013-08-14 06:27:00,72.0,69.2,30.00,North,0,1.1,1.1,91,0.00,,,0.00,LWC V2.00 B2112,2013-08-14 10:27:00,
2013-08-14 06:32:00,72.0,69.2,30.00,North,0,1.8,1.8,91,0.00,,,0.00,LWC V2.00 B2112,2013-08-14 10:32:00,
2013-08-14 06:37:00,71.8,69.0,30.00,North,0,1.6,1.6,91,0.00,,,0.00,LWC V2.00 B2112,2013-08-14 10:37:00,
2013-08-14 06:42:00,71.8,69.0,30.00,North,0,3.1,3.1,91,0.00,,,0.00,LWC V2.00 B2112,2013-08-14 10:42:00,
2013-08-14 06:47:00,71.8,69.0,30.01,North,0,0.7,0.7,91,0.00,,,0.00,LWC V2.00 B2112,2013-08-14 10:47:00,
2013-08-14 06:52:00,71.6,68.8,30.02,North,0,0.0,0.0,91,0.00,,,0.00,LWC V2.00 B2112,2013-08-14 10:52:00,
2013-08-14 06:57:00,71.8,69.0,30.02,North,0,0.0,0.0,91,0.00,,,0.00,LWC V2.00 B2112,2013-08-14 10:57:00,
2013-08-14 07:02:00,71.6,68.8,30.02,North,0,1.6,1.6,91,0.00,,,0.00,LWC V2.00 B2112,2013-08-14 11:02:00,
2013-08-14 07:07:00,71.8,69.0,30.02,North,0,2.7,2.7,91,0.00,,,0.00,LWC V2.00 B2112,2013-08-14 11:07:00,
2013-08-14 07:12:00,71.8,69.3,30.02,North,0,3.1,3.1,92,0.00,,,0.00,LWC V2.00 B2112,2013-08-14 11:12:00,
2013-08-14 07:17:00,71.8,69.3,30.02,North,0,2.0,2.0,92,0.00,,,0.00,LWC V2.00 B2112,2013-08-14 11:17:00,
2013-08-14 07:22:00,71.8,69.3,30.02,North,0,2.0,2.0,92,0.00,,,0.00,LWC V2.00 B2112,2013-08-14 11:22:00,
2013-08-14 07:27:00,71.8,69.3,30.01,North,0,2.7,2.7,92,0.00,,,0.00,LWC V2.00 B2112,2013-08-14 11:27:00,
2013-08-14 07:32:00,72.0,69.5,30.02,North,0,2.2,2.2,92,0.00,,,0.00,LWC V2.00 B2112,2013-08-14 11:32:00,
2013-08-14 07:37:00,72.0,69.5,30.02,North,0,2.0,2.2,92,0.00,,,0.00,LWC V2.00 B2112,2013-08-14 11:37:00,
2013-08-14 07:42:00,72.0,69.5,30.02,North,0,2.7,2.7,92,0.00,,,0.00,LWC V2.00 B2112,2013-08-14 11:42:00,
2013-08-14 07:47:00,72.1,69.7,30.03,North,0,0.2,0.2,92,0.00,,,0.00,LWC V2.00 B2112,2013-08-14 11:47:00,
2013-08-14 07:52:00,72.1,69.4,30.03,NNE,22,0.9,1.3,91,0.00,,,0.00,LWC V2.00 B2112,2013-08-14 11:52:00,
2013-08-14 07:57:00,72.3,69.6,30.04,NNE,22,2.2,2.2,91,0.00,,,0.00,LWC V2.00 B2112,2013-08-14 11:57:00,
2013-08-14 08:02:00,72.3,69.6,30.04,NNE,22,1.8,1.8,91,0.00,,,0.00,LWC V2.00 B2112,2013-08-14 12:02:00,
2013-08-14 08:07:00,72.5,69.7,30.04,North,0,2.5,2.5,91,0.00,,,0.00,LWC V2.00 B2112,2013-08-14 12:07:00,
2013-08-14 08:12:00,72.5,69.7,30.05,North,0,0.9,0.9,91,0.00,,,0.00,LWC V2.00 B2112,2013-08-14 12:12:00,
2013-08-14 08:17:00,72.7,69.9,30.05,NNE,22,2.7,2.7,91,0.00,,,0.00,LWC V2.00 B2112,2013-08-14 12:17:00,
2013-08-14 08:22:00,72.5,69.4,30.05,NNE,22,1.8,3.1,90,0.00,,,0.00,LWC V2.00 B2112,2013-08-14 12:22:00,
2013-08-14 08:27:00,72.5,69.4,30.05,North,0,3.1,4.2,90,0.00,,,0.00,LWC V2.00 B2112,2013-08-14 12:27:00,
2013-08-14 08:32:00,72.3,69.4,30.06,NNE,22,4.0,6.0,90,0.00,,,0.00,LWC V2.00 B2112,2013-08-14 12:32:00,
2013-08-14 08:37:00,72.3,68.9,30.06,NNE,22,3.1,4.5,89,0.00,,,0.00,LWC V2.00 B2112,2013-08-14 12:37:00,
2013-08-14 08:42:00,72.3,68.6,30.07,NNE,22,4.5,4.5,88,0.00,,,0.00,LWC V2.00 B2112,2013-08-14 12:42:00,
2013-08-14 08:47:00,72.1,68.1,30.07,NNE,22,3.8,5.8,87,0.00,,,0.00,LWC V2.00 B2112,2013-08-14 12:47:00,
2013-08-14 08:52:00,72.1,67.4,30.07,NNE,22,4.2,5.6,85,0.00,,,0.00,LWC V2.00 B2112,2013-08-14 12:52:00,
2013-08-14 08:57:00,71.8,66.7,30.08,North,0,4.0,4.0,84,0.00,,,0.00,LWC V2.00 B2112,2013-08-14 12:57:00,
2013-08-14 09:02:00,71.8,66.1,30.07,NNE,22,5.4,5.4,84,0.00,,,0.00,LWC V2.00 B2112,2013-08-14 13:02:00,
2013-08-14 09:07:00,71.4,66.0,30.07,NNE,22,2.9,2.9,83,0.00,,,0.00,LWC V2.00 B2112,2013-08-14 13:07:00,
2013-08-14 09:12:00,71.4,66.0,30.07,NNE,22,4.0,4.0,83,0.00,,,0.00,LWC V2.00 B2112,2013-08-14 13:12:00,
2013-08-14 09:17:00,71.4,66.3,30.07,NNE,22,4.9,4.9,84,0.00,,,0.00,LWC V2.00 B2112,2013-08-14 13:17:00,
2013-08-14 09:22:00,71.4,66.3,30.08,NNE,22,3.1,3.1,84,0.00,,,0.00,LWC V2.00 B2112,2013-08-14 13:22:00,
2013-08-14 09:27:00,71.4,66.3,30.08,NNE,22,4.9,4.9,84,0.00,,,0.00,LWC V2.00 B2112,2013-08-14 13:27:00,
2013-08-14 09:32:00,71.4,66.0,30.08,NE,45,3.1,3.4,83,0.00,,,0.00,LWC V2.00 B2112,2013-08-14 13:32:00,
2013-08-14 09:37:00,71.4,66.3,30.08,NNE,22,1.3,3.6,84,0.00,,,0.00,LWC V2.00 B2112,2013-08-14 13:37:00,
2013-08-14 09:42:00,71.4,66.3,30.08,NNE,22,4.2,4.2,84,0.00,,,0.00,LWC V2.00 B2112,2013-08-14 13:42:00,
2013-08-14 09:47:00,71.6,66.1,30.08,NNE,22,2.0,5.4,83,0.00,,,0.00,LWC V2.00 B2112,2013-08-14 13:47:00,
2013-08-14 09:52:00,71.6,66.1,30.09,North,0,4.2,4.2,83,0.00,,,0.00,LWC V2.00 B2112,2013-08-14 13:52:00,
2013-08-14 09:57:00,71.4,66.0,30.09,NNE,22,2.9,2.9,83,0.00,,,0.00,LWC V2.00 B2112,2013-08-14 13:57:00,
2013-08-14 10:02:00,71.4,65.6,30.09,NE,45,2.5,2.5,82,0.00,,,0.00,LWC V2.00 B2112,2013-08-14 14:02:00,
2013-08-14 10:07:00,71.4,65.6,30.10,NNE,22,3.4,4.5,82,0.00,,,0.00,LWC V2.00 B2112,2013-08-14 14:07:00,
2013-08-14 10:12:00,71.4,65.3,30.10,NNE,22,3.8,3.8,81,0.00,,,0.00,LWC V2.00 B2112,2013-08-14 14:12:00,
2013-08-14 10:17:00,71.4,65.3,30.10,NNE,22,1.8,2.2,81,0.00,,,0.00,LWC V2.00 B2112,2013-08-14 14:17:00,
2013-08-14 10:22:00,71.4,65.3,30.10,NNE,22,2.7,2.7,81,0.00,,,0.00,LWC V2.00 B2112,2013-08-14 14:22:00,
2013-08-14 10:27:00,71.4,65.3,30.10,NNE,22,3.1,3.1,81,0.00,,,0.00,LWC V2.00 B2112,2013-08-14 14:27:00,
2013-08-14 10:32:00,71.8,65.6,30.10,NNE,22,2.9,2.9,81,0.00,,,0.00,LWC V2.00 B2112,2013-08-14 14:32:00,
2013-08-14 10:37:00,72.0,65.8,30.10,NE,45,2.5,2.9,81,0.00,,,0.00,LWC V2.00 B2112,2013-08-14 14:37:00,
2013-08-14 10:42:00,72.1,66.0,30.10,NE,45,2.2,2.2,81,0.00,,,0.00,LWC V2.00 B2112,2013-08-14 14:42:00,
2013-08-14 10:47:00,72.3,66.5,30.10,NE,45,2.2,2.2,82,0.00,,,0.00,LWC V2.00 B2112,2013-08-14 14:47:00,
2013-08-14 10:52:00,72.5,66.7,30.10,NNE,22,5.1,5.1,82,0.00,,,0.00,LWC V2.00 B2112,2013-08-14 14:52:00,
2013-08-14 10:57:00,72.7,66.4,30.11,NE,45,0.0,0.0,81,0.00,,,0.00,LWC V2.00 B2112,2013-08-14 14:57:00,
2013-08-14 11:02:00,72.3,66.2,30.11,ENE,67,1.6,3.6,81,0.00,,,0.00,LWC V2.00 B2112,2013-08-14 15:02:00,
2013-08-14 11:07:00,72.3,65.8,30.12,NE,45,3.1,3.1,80,0.00,,,0.00,LWC V2.00 B2112,2013-08-14 15:07:00,
2013-08-14 11:12:00,72.0,65.5,30.13,NE,45,2.5,2.5,80,0.00,,,0.00,LWC V2.00 B2112,2013-08-14 15:12:00,
2013-08-14 11:17:00,71.8,65.3,30.12,NNE,22,2.9,4.7,80,0.00,,,0.00,LWC V2.00 B2112,2013-08-14 15:17:00,
2013-08-14 11:22:00,71.6,65.1,30.12,NE,45,1.8,2.2,80,0.00,,,0.00,LWC V2.00 B2112,2013-08-14 15:22:00,
2013-08-14 11:27:00,71.6,65.1,30.11,NE,45,3.4,3.4,80,0.00,,,0.00,LWC V2.00 B2112,2013-08-14 15:27:00,
2013-08-14 11:32:00,71.8,65.1,30.12,NNE,22,4.7,4.7,80,0.00,,,0.00,LWC V2.00 B2112,2013-08-14 15:32:00,
2013-08-14 11:37:00,71.8,64.9,30.12,NNE,22,3.8,4.5,79,0.00,,,0.00,LWC V2.00 B2112,2013-08-14 15:37:00,
2013-08-14 11:42:00,71.4,64.2,30.12,NNE,22,4.2,4.2,78,0.00,,,0.00,LWC V2.00 B2112,2013-08-14 15:42:00,
2013-08-14 11:47:00,71.4,64.2,30.13,NNE,22,3.4,3.8,78,0.00,,,0.00,LWC V2.00 B2112,2013-08-14 15:47:00,
2013-08-14 11:54:00,71.2,64.0,30.13,NNE,22,2.9,2.9,78,0.00,,,0.00,LWC V2.00 B2112,2013-08-14 15:54:00,
2013-08-14 11:59:00,71.4,64.2,30.13,NNE,22,3.4,3.4,78,0.00,,,0.00,LWC V2.00 B2112,2013-08-14 15:59:00,
2013-08-14 12:04:00,71.4,64.2,30.12,NNE,22,3.6,3.6,78,0.00,,,0.00,LWC V2.00 B2112,2013-08-14 16:04:00,
2013-08-14 12:09:00,71.4,64.2,30.12,NNE,22,4.0,4.0,78,0.00,,,0.00,LWC V2.00 B2112,2013-08-14 16:09:00,
2013-08-14 12:14:00,71.4,64.2,30.12,NE,45,2.5,2.5,78,0.00,,,0.00,LWC V2.00 B2112,2013-08-14 16:14:00,
2013-08-14 12:19:00,71.8,64.5,30.12,NNE,22,2.9,3.4,79,0.00,,,0.00,LWC V2.00 B2112,2013-08-14 16:19:00,
2013-08-14 12:24:00,72.1,65.3,30.12,NE,45,0.7,2.7,79,0.00,,,0.00,LWC V2.00 B2112,2013-08-14 16:24:00,
2013-08-14 12:29:00,72.3,65.5,30.11,NNE,22,2.9,2.9,79,0.00,,,0.00,LWC V2.00 B2112,2013-08-14 16:29:00,
2013-08-14 12:34:00,72.5,64.7,30.12,NE,45,0.7,2.5,78,0.00,,,0.00,LWC V2.00 B2112,2013-08-14 16:34:00,
2013-08-14 12:39:00,72.3,64.3,30.12,NNE,22,0.4,3.1,76,0.00,,,0.00,LWC V2.00 B2112,2013-08-14 16:39:00,
2013-08-14 12:44:00,72.0,64.3,30.12,NNE,22,2.7,2.7,77,0.00,,,0.00,LWC V2.00 B2112,2013-08-14 16:44:00,
2013-08-14 12:49:00,71.4,63.8,30.12,NE,45,1.8,1.8,77,0.00,,,0.00,LWC V2.00 B2112,2013-08-14 16:49:00,
2013-08-14 12:54:00,71.4,63.8,30.12,NE,45,1.6,3.1,77,0.00,,,0.00,LWC V2.00 B2112,2013-08-14 16:54:00,
2013-08-14 12:59:00,71.4,63.8,30.13,NE,45,0.7,0.7,77,0.00,,,0.00,LWC V2.00 B2112,2013-08-14 16:59:00,
2013-08-14 13:04:00,71.2,64.0,30.12,NE,45,0.0,0.0,78,0.00,,,0.00,LWC V2.00 B2112,2013-08-14 17:04:00,
2013-08-14 13:10:00,71.2,64.0,30.12,NE,45,0.0,0.0,78,0.00,,,0.00,LWC V2.00 B2112,2013-08-14 17:10:00,
2013-08-14 13:15:00,71.4,64.2,30.12,NE,45,0.0,1.6,78,0.00,,,0.00,LWC V2.00 B2112,2013-08-14 17:15:00,
2013-08-14 13:20:00,71.4,63.8,30.13,NE,45,0.0,0.7,77,0.00,,,0.00,LWC V2.00 B2112,2013-08-14 17:20:00,
2013-08-14 13:25:00,71.4,63.8,30.13,NE,45,0.0,0.0,77,0.00,,,0.00,LWC V2.00 B2112,2013-08-14 17:25:00,
2013-08-14 13:30:00,71.8,63.8,30.13,North,0,0.9,0.9,76,0.00,,,0.00,LWC V2.00 B2112,2013-08-14 17:30:00,
2013-08-14 13:35:00,72.0,64.0,30.13,North,0,0.0,0.7,76,0.00,,,0.00,LWC V2.00 B2112,2013-08-14 17:35:00,
2013-08-14 13:40:00,72.1,64.1,30.13,NE,45,2.0,2.0,76,0.00,,,0.00,LWC V2.00 B2112,2013-08-14 17:40:00,
2013-08-14 13:45:00,72.3,64.3,30.12,NE,45,1.1,2.0,76,0.00,,,0.00,LWC V2.00 B2112,2013-08-14 17:45:00,
2013-08-14 13:50:00,72.3,64.3,30.12,NE,45,1.6,1.6,76,0.00,,,0.00,LWC V2.00 B2112,2013-08-14 17:50:00,
2013-08-14 13:56:00,72.5,64.5,30.12,NNE,22,1.1,2.0,76,0.00,,,0.00,LWC V2.00 B2112,2013-08-14 17:56:00,
2013-08-14 14:01:00,72.5,64.5,30.12,NNE,22,2.0,2.0,76,0.00,,,0.00,LWC V2.00 B2112,2013-08-14 18:01:00,
2013-08-14 14:06:00,73.2,64.7,30.12,NE,45,1.3,2.7,75,0.00,,,0.00,LWC V2.00 B2112,2013-08-14 18:06:00,
2013-08-14 14:11:00,73.4,65.0,30.12,NE,45,0.0,2.9,75,0.00,,,0.00,LWC V2.00 B2112,2013-08-14 18:11:00,
2013-08-14 14:17:00,73.6,64.8,30.12,NE,45,2.2,2.2,74,0.00,,,0.00,LWC V2.00 B2112,2013-08-14 18:17:00,
2013-08-14 14:22:00,73.6,64.8,30.12,NNE,22,1.8,3.6,74,0.00,,,0.00,LWC V2.00 B2112,2013-08-14 18:22:00,
2013-08-14 14:28:00,73.2,64.5,30.12,NNE,22,2.7,2.7,74,0.00,,,0.00,LWC V2.00 B2112,2013-08-14 18:28:00,
2013-08-14 14:33:00,73.2,64.5,30.12,NNE,22,2.0,2.0,74,0.00,,,0.00,LWC V2.00 B2112,2013-08-14 18:33:00,
2013-08-14 14:38:00,73.2,64.5,30.13,North,0,2.0,2.0,74,0.00,,,0.00,LWC V2.00 B2112,2013-08-14 18:38:00,
2013-08-14 14:43:00,73.6,64.8,30.12,North,0,2.0,2.0,74,0.00,,,0.00,LWC V2.00 B2112,2013-08-14 18:43:00,
2013-08-14 14:49:00,73.6,64.4,30.12,NNE,22,2.5,3.1,73,0.00,,,0.00,LWC V2.00 B2112,2013-08-14 18:49:00,
2013-08-14 14:54:00,73.9,64.8,30.12,NNE,22,0.0,3.4,73,0.00,,,0.00,LWC V2.00 B2112,2013-08-14 18:54:00,
2013-08-14 14:59:00,74.5,65.7,30.12,NNE,22,1.1,1.1,74,0.00,,,0.00,LWC V2.00 B2112,2013-08-14 18:59:00,
2013-08-14 15:04:00,75.0,65.4,30.12,NNE,22,3.1,3.1,72,0.00,,,0.00,LWC V2.00 B2112,2013-08-14 19:04:00,
2013-08-14 15:12:00,75.4,65.3,30.11,NNE,22,0.0,2.2,71,0.00,,,0.00,LWC V2.00 B2112,2013-08-14 19:12:00,
2013-08-14 15:17:00,75.4,65.3,30.12,ENE,67,1.8,1.8,71,0.00,,,0.00,LWC V2.00 B2112,2013-08-14 19:17:00,
2013-08-14 15:22:00,75.4,65.3,30.12,ENE,67,0.0,0.0,71,0.00,,,0.00,LWC V2.00 B2112,2013-08-14 19:22:00,
2013-08-14 15:28:00,75.0,65.0,30.12,NE,45,0.0,1.6,71,0.00,,,0.00,LWC V2.00 B2112,2013-08-14 19:28:00,
2013-08-14 15:33:00,74.8,64.8,30.12,NE,45,1.3,1.3,71,0.00,,,0.00,LWC V2.00 B2112,2013-08-14 19:33:00,
2013-08-14 15:38:00,74.5,64.5,30.12,NE,45,1.8,1.8,71,0.00,,,0.00,LWC V2.00 B2112,2013-08-14 19:38:00,
2013-08-14 15:43:00,74.1,64.2,30.12,NE,45,2.7,2.7,71,0.00,,,0.00,LWC V2.00 B2112,2013-08-14 19:43:00,
2013-08-14 15:48:00,73.8,63.8,30.12,NE,45,2.0,2.0,71,0.00,,,0.00,LWC V2.00 B2112,2013-08-14 19:48:00,
2013-08-14 15:53:00,73.2,63.7,30.12,NE,45,0.4,1.3,72,0.00,,,0.00,LWC V2.00 B2112,2013-08-14 19:53:00,
2013-08-14 15:58:00,73.2,63.7,30.13,NNE,22,1.6,2.5,72,0.00,,,0.00,LWC V2.00 B2112,2013-08-14 19:58:00,
2013-08-14 16:04:00,73.0,63.9,30.13,NE,45,2.0,2.0,73,0.00,,,0.00,LWC V2.00 B2112,2013-08-14 20:04:00,
2013-08-14 16:09:00,73.0,63.9,30.13,NE,45,0.0,0.0,73,0.00,,,0.00,LWC V2.00 B2112,2013-08-14 20:09:00,
2013-08-14 16:14:00,73.0,64.3,30.13,ENE,67,0.0,0.0,74,0.00,,,0.00,LWC V2.00 B2112,2013-08-14 20:14:00,
2013-08-14 16:21:00,72.9,63.7,30.13,ENE,67,0.0,0.0,73,0.00,,,0.00,LWC V2.00 B2112,2013-08-14 20:21:00,
2013-08-14 16:27:00,72.7,63.6,30.13,ENE,67,0.0,0.0,73,0.00,,,0.00,LWC V2.00 B2112,2013-08-14 20:27:00,
2013-08-14 16:32:00,72.7,64.3,30.13,ENE,67,0.0,0.0,75,0.00,,,0.00,LWC V2.00 B2112,2013-08-14 20:32:00,
2013-08-14 16:38:00,72.9,64.5,30.13,ENE,67,0.0,0.0,75,0.00,,,0.00,LWC V2.00 B2112,2013-08-14 20:38:00,
2013-08-14 16:44:00,72.9,64.5,30.13,ENE,67,0.0,0.0,75,0.00,,,0.00,LWC V2.00 B2112,2013-08-14 20:44:00,
2013-08-14 16:49:00,72.9,64.9,30.13,ENE,67,0.0,0.0,76,0.00,,,0.00,LWC V2.00 B2112,2013-08-14 20:49:00,
2013-08-14 16:54:00,73.0,64.7,30.13,ENE,67,0.0,0.0,75,0.00,,,0.00,LWC V2.00 B2112,2013-08-14 20:54:00,
2013-08-14 16:59:00,73.2,64.8,30.13,NE,45,0.0,0.0,75,0.00,,,0.00,LWC V2.00 B2112,2013-08-14 20:59:00,
2013-08-14 17:04:00,73.2,64.5,30.13,NE,45,0.0,0.0,74,0.00,,,0.00,LWC V2.00 B2112,2013-08-14 21:04:00,
2013-08-14 17:09:00,73.2,64.5,30.13,NNE,22,2.9,2.9,74,0.00,,,0.00,LWC V2.00 B2112,2013-08-14 21:09:00,
2013-08-14 17:14:00,73.2,64.1,30.13,North,0,2.7,2.7,73,0.00,,,0.00,LWC V2.00 B2112,2013-08-14 21:14:00,
2013-08-14 17:19:00,73.0,63.5,30.12,NNE,22,0.4,3.1,72,0.00,,,0.00,LWC V2.00 B2112,2013-08-14 21:19:00,
2013-08-14 17:24:00,73.0,63.5,30.13,NNE,22,1.8,1.8,72,0.00,,,0.00,LWC V2.00 B2112,2013-08-14 21:24:00,
2013-08-14 17:29:00,72.9,63.4,30.12,NNE,22,1.8,2.2,72,0.00,,,0.00,LWC V2.00 B2112,2013-08-14 21:29:00,
2013-08-14 17:34:00,72.7,63.6,30.13,NNE,22,0.7,2.0,73,0.00,,,0.00,LWC V2.00 B2112,2013-08-14 21:34:00,
2013-08-14 17:39:00,72.7,63.6,30.12,NNE,22,2.5,2.5,73,0.00,,,0.00,LWC V2.00 B2112,2013-08-14 21:39:00,
2013-08-14 17:44:00,72.5,63.4,30.12,NNE,22,2.2,2.2,73,0.00,,,0.00,LWC V2.00 B2112,2013-08-14 21:44:00,
2013-08-14 17:50:00,72.5,63.4,30.13,NNE,22,2.2,2.2,73,0.00,,,0.00,LWC V2.00 B2112,2013-08-14 21:50:00,
2013-08-14 17:55:00,72.3,63.2,30.13,NNE,22,0.0,0.0,73,0.00,,,0.00,LWC V2.00 B2112,2013-08-14 21:55:00,
2013-08-14 18:00:00,72.3,63.4,30.13,NNE,22,0.0,0.0,74,0.00,,,0.00,LWC V2.00 B2112,2013-08-14 22:00:00,
2013-08-14 18:05:00,72.1,63.8,30.13,NNE,22,0.0,0.0,75,0.00,,,0.00,LWC V2.00 B2112,2013-08-14 22:05:00,
2013-08-14 18:10:00,71.8,63.6,30.13,NNE,22,0.0,0.0,75,0.00,,,0.00,LWC V2.00 B2112,2013-08-14 22:10:00,
2013-08-14 18:15:00,71.8,63.8,30.13,NNE,22,0.0,0.0,76,0.00,,,0.00,LWC V2.00 B2112,2013-08-14 22:15:00,
2013-08-14 18:20:00,71.8,63.8,30.13,NNE,22,0.0,0.0,76,0.00,,,0.00,LWC V2.00 B2112,2013-08-14 22:20:00,
2013-08-14 18:25:00,71.8,63.8,30.13,NNE,22,0.0,0.0,76,0.00,,,0.00,LWC V2.00 B2112,2013-08-14 22:25:00,
2013-08-14 18:30:00,71.4,63.8,30.13,NNE,22,0.0,0.0,77,0.00,,,0.00,LWC V2.00 B2112,2013-08-14 22:30:00,
2013-08-14 18:35:00,71.4,63.8,30.13,NNE,22,0.0,0.0,77,0.00,,,0.00,LWC V2.00 B2112,2013-08-14 22:35:00,
2013-08-14 18:40:00,71.4,64.2,30.13,NNE,22,0.0,0.0,78,0.00,,,0.00,LWC V2.00 B2112,2013-08-14 22:40:00,
2013-08-14 18:45:00,71.2,64.0,30.14,NNE,22,0.0,0.0,78,0.00,,,0.00,LWC V2.00 B2112,2013-08-14 22:45:00,
2013-08-14 18:51:00,71.2,64.4,30.14,NNE,22,0.0,0.0,79,0.00,,,0.00,LWC V2.00 B2112,2013-08-14 22:51:00,
2013-08-14 18:56:00,70.9,64.0,30.14,NNE,22,0.0,0.0,79,0.00,,,0.00,LWC V2.00 B2112,2013-08-14 22:56:00,
2013-08-14 19:01:00,70.7,63.8,30.14,NNE,22,0.0,0.0,79,0.00,,,0.00,LWC V2.00 B2112,2013-08-14 23:01:00,
2013-08-14 19:06:00,70.5,64.0,30.14,NNE,22,0.0,0.0,80,0.00,,,0.00,LWC V2.00 B2112,2013-08-14 23:06:00,
2013-08-14 19:11:00,70.3,63.9,30.14,NNE,22,0.0,0.0,80,0.00,,,0.00,LWC V2.00 B2112,2013-08-14 23:11:00,
2013-08-14 19:16:00,70.3,64.2,30.15,NNE,22,0.0,0.0,81,0.00,,,0.00,LWC V2.00 B2112,2013-08-14 23:16:00,
2013-08-14 19:21:00,70.3,64.5,30.15,NNE,22,0.0,0.0,82,0.00,,,0.00,LWC V2.00 B2112,2013-08-14 23:21:00,
2013-08-14 19:26:00,70.2,64.4,30.15,NNE,22,0.0,0.0,82,0.00,,,0.00,LWC V2.00 B2112,2013-08-14 23:26:00,
2013-08-14 19:31:00,70.0,64.2,30.15,NNE,22,0.0,0.0,82,0.00,,,0.00,LWC V2.00 B2112,2013-08-14 23:31:00,
2013-08-14 19:36:00,69.6,63.8,30.15,NNE,22,0.0,0.9,82,0.00,,,0.00,LWC V2.00 B2112,2013-08-14 23:36:00,
2013-08-14 19:41:00,69.6,63.8,30.15,NNE,22,0.0,0.0,82,0.00,,,0.00,LWC V2.00 B2112,2013-08-14 23:41:00,
2013-08-14 19:46:00,69.6,63.5,30.15,NNE,22,0.0,0.0,81,0.00,,,0.00,LWC V2.00 B2112,2013-08-14 23:46:00,
2013-08-14 19:51:00,69.6,63.8,30.15,NNE,22,0.0,0.0,82,0.00,,,0.00,LWC V2.00 B2112,2013-08-14 23:51:00,
2013-08-14 19:56:00,69.4,63.3,30.15,NNE,22,1.3,1.8,81,0.00,,,0.00,LWC V2.00 B2112,2013-08-14 23:56:00,
2013-08-14 20:01:00,69.3,63.2,30.15,NNE,22,1.1,1.1,81,0.00,,,0.00,LWC V2.00 B2112,2013-08-15 00:01:00,
2013-08-14 20:06:00,69.1,63.0,30.15,NNE,22,0.0,0.0,81,0.00,,,0.00,LWC V2.00 B2112,2013-08-15 00:06:00,
2013-08-14 20:11:00,68.9,62.8,30.16,NNE,22,0.0,0.0,81,0.00,,,0.00,LWC V2.00 B2112,2013-08-15 00:11:00,
2013-08-14 20:16:00,68.7,62.7,30.16,NNE,22,0.0,0.0,81,0.00,,,0.00,LWC V2.00 B2112,2013-08-15 00:16:00,
2013-08-14 20:21:00,68.5,62.5,30.16,NNE,22,0.0,0.0,81,0.00,,,0.00,LWC V2.00 B2112,2013-08-15 00:21:00,
2013-08-14 20:26:00,68.2,62.2,30.16,NNE,22,0.0,0.0,81,0.00,,,0.00,LWC V2.00 B2112,2013-08-15 00:26:00,
2013-08-14 20:31:00,68.2,62.2,30.16,NNE,22,0.0,0.0,81,0.00,,,0.00,LWC V2.00 B2112,2013-08-15 00:31:00,
2013-08-14 20:36:00,67.8,61.8,30.16,NNE,22,0.0,0.0,81,0.00,,,0.00,LWC V2.00 B2112,2013-08-15 00:36:00,
2013-08-14 20:41:00,67.6,62.0,30.17,NNE,22,0.0,0.0,82,0.00,,,0.00,LWC V2.00 B2112,2013-08-15 00:41:00,
2013-08-14 20:46:00,67.6,62.3,30.17,NNE,22,0.0,0.0,83,0.00,,,0.00,LWC V2.00 B2112,2013-08-15 00:46:00,
2013-08-14 20:51:00,67.6,62.6,30.17,NNE,22,0.0,0.0,84,0.00,,,0.00,LWC V2.00 B2112,2013-08-15 00:51:00,
2013-08-14 20:56:00,67.3,62.3,30.17,NNE,22,0.0,0.0,84,0.00,,,0.00,LWC V2.00 B2112,2013-08-15 00:56:00,
2013-08-14 21:01:00,67.3,62.3,30.18,NNE,22,0.0,0.0,84,0.00,,,0.00,LWC V2.00 B2112,2013-08-15 01:01:00,
2013-08-14 21:06:00,66.9,61.9,30.18,NNE,22,0.0,0.0,84,0.00,,,0.00,LWC V2.00 B2112,2013-08-15 01:06:00,
2013-08-14 21:11:00,66.7,61.7,30.18,NNE,22,0.0,0.0,84,0.00,,,0.00,LWC V2.00 B2112,2013-08-15 01:11:00,
2013-08-14 21:16:00,66.4,61.4,30.18,NNE,22,0.0,0.0,84,0.00,,,0.00,LWC V2.00 B2112,2013-08-15 01:16:00,
2013-08-14 21:18:00,66.4,61.4,30.18,NNE,22,0.0,0.0,84,0.00,,,0.00,LWC V2.00 B2112,2013-08-15 01:18:00,
2013-08-14 21:23:00,66.0,61.3,30.18,NNE,22,0.0,0.0,85,0.00,,,0.00,LWC V2.00 B2112,2013-08-15 01:23:00,
2013-08-14 21:28:00,66.0,61.7,30.18,NNE,22,0.0,0.0,86,0.00,,,0.00,LWC V2.00 B2112,2013-08-15 01:28:00,
2013-08-14 21:33:00,66.0,61.7,30.19,NNE,22,0.0,0.0,86,0.00,,,0.00,LWC V2.00 B2112,2013-08-15 01:33:00,
2013-08-14 21:38:00,66.0,61.8,30.19,NNE,22,0.0,0.0,87,0.00,,,0.00,LWC V2.00 B2112,2013-08-15 01:38:00,
2013-08-14 21:43:00,65.8,61.8,30.20,NNE,22,0.0,0.0,87,0.00,,,0.00,LWC V2.00 B2112,2013-08-15 01:43:00,
2013-08-14 21:48:00,65.7,61.7,30.19,NNE,22,0.0,0.0,87,0.00,,,0.00,LWC V2.00 B2112,2013-08-15 01:48:00,
2013-08-14 21:53:00,65.3,61.5,30.20,NNE,22,0.0,0.0,87,0.00,,,0.00,LWC V2.00 B2112,2013-08-15 01:53:00,
2013-08-14 21:58:00,65.1,61.2,30.21,NNE,22,0.0,0.0,87,0.00,,,0.00,LWC V2.00 B2112,2013-08-15 01:58:00,
2013-08-14 22:03:00,65.1,61.2,30.21,NNE,22,0.0,0.0,87,0.00,,,0.00,LWC V2.00 B2112,2013-08-15 02:03:00,
2013-08-14 22:08:00,64.9,61.0,30.21,NNE,22,0.0,0.0,87,0.00,,,0.00,LWC V2.00 B2112,2013-08-15 02:08:00,
2013-08-14 22:13:00,64.6,60.7,30.21,NNE,22,0.0,0.0,87,0.00,,,0.00,LWC V2.00 B2112,2013-08-15 02:13:00,
2013-08-14 22:18:00,64.6,60.7,30.21,NNE,22,0.0,0.0,87,0.00,,,0.00,LWC V2.00 B2112,2013-08-15 02:18:00,
2013-08-14 22:23:00,64.2,60.7,30.21,NNE,22,0.0,0.0,88,0.00,,,0.00,LWC V2.00 B2112,2013-08-15 02:23:00,
2013-08-14 22:28:00,64.2,60.7,30.20,NNE,22,0.0,0.0,88,0.00,,,0.00,LWC V2.00 B2112,2013-08-15 02:28:00,
2013-08-14 22:33:00,64.0,60.5,30.20,NNE,22,0.0,0.0,88,0.00,,,0.00,LWC V2.00 B2112,2013-08-15 02:33:00,
2013-08-14 22:38:00,63.7,60.1,30.20,NNE,22,0.0,0.0,88,0.00,,,0.00,LWC V2.00 B2112,2013-08-15 02:38:00,
2013-08-14 22:43:00,63.5,59.9,30.21,NNE,22,0.0,0.0,88,0.00,,,0.00,LWC V2.00 B2112,2013-08-15 02:43:00,
2013-08-14 22:48:00,63.3,59.8,30.20,NNE,22,0.0,0.0,88,0.00,,,0.00,LWC V2.00 B2112,2013-08-15 02:48:00,
2013-08-14 22:53:00,63.1,59.9,30.20,NNE,22,0.0,0.0,89,0.00,,,0.00,LWC V2.00 B2112,2013-08-15 02:53:00,
2013-08-14 22:58:00,63.0,59.7,30.20,NNE,22,0.0,0.0,89,0.00,,,0.00,LWC V2.00 B2112,2013-08-15 02:58:00,
2013-08-14 23:03:00,63.0,59.7,30.20,NNE,22,0.0,0.0,89,0.00,,,0.00,LWC V2.00 B2112,2013-08-15 03:03:00,
2013-08-14 23:08:00,62.8,59.6,30.20,NNE,22,0.0,0.0,89,0.00,,,0.00,LWC V2.00 B2112,2013-08-15 03:08:00,
2013-08-14 23:13:00,62.8,59.6,30.20,NNE,22,0.0,0.0,89,0.00,,,0.00,LWC V2.00 B2112,2013-08-15 03:13:00,
2013-08-14 23:18:00,62.6,59.4,30.20,NNE,22,0.0,0.0,89,0.00,,,0.00,LWC V2.00 B2112,2013-08-15 03:18:00,
2013-08-14 23:23:00,62.4,59.2,30.20,NNE,22,0.0,0.0,89,0.00,,,0.00,LWC V2.00 B2112,2013-08-15 03:23:00,
2013-08-14 23:28:00,62.4,59.2,30.20,NNE,22,0.0,0.0,89,0.00,,,0.00,LWC V2.00 B2112,2013-08-15 03:28:00,
2013-08-14 23:33:00,62.4,59.2,30.21,NNE,22,0.0,0.0,89,0.00,,,0.00,LWC V2.00 B2112,2013-08-15 03:33:00,
2013-08-14 23:38:00,62.4,59.5,30.21,NNE,22,0.0,0.0,90,0.00,,,0.00,LWC V2.00 B2112,2013-08-15 03:38:00,
2013-08-14 23:43:00,62.4,59.5,30.21,NNE,22,0.0,0.0,90,0.00,,,0.00,LWC V2.00 B2112,2013-08-15 03:43:00,
2013-08-14 23:48:00,62.6,59.7,30.21,NNE,22,0.0,0.0,90,0.00,,,0.00,LWC V2.00 B2112,2013-08-15 03:48:00,
2013-08-14 23:53:00,62.4,59.5,30.21,NNE,22,0.0,0.0,90,0.00,,,0.00,LWC V2.00 B2112,2013-08-15 03:53:00,
2013-08-14 23:58:00,62.4,59.5,30.21,NNE,22,0.0,0.0,90,0.00,,,0.00,LWC V2.00 B2112,2013-08-15 03:58:00,